Time,TemperatureF,DewpointF,PressureIn,WindDirection,WindDirectionDegrees,WindSpeedMPH,WindSpeedGustMPH,Humidity,HourlyPrecipIn,Conditions,Clouds,dailyrainin,SoftwareType,DateUTC
2013-05-08 00:09:00,61.2,60.6,29.95,ESE,112,0.0,-999.0,98,-99.99,,,0.00,Acu-Link.com,2013-05-08 04:09:00,
2013-05-08 00:26:00,61.5,60.9,29.95,ESE,112,0.0,-999.0,98,-99.99,,,0.00,Acu-Link.com,2013-05-08 04:26:00,
2013-05-08 00:43:00,61.9,61.3,29.94,ESE,112,0.0,-999.0,98,-99.99,,,0.00,Acu-Link.com,2013-05-08 04:43:00,
2013-05-08 01:00:00,61.9,61.3,29.95,ESE,112,0.0,-999.0,98,-99.99,,,0.00,Acu-Link.com,2013-05-08 05:00:00,
2013-05-08 01:16:00,61.9,61.3,29.93,ESE,112,0.0,-999.0,98,-99.99,,,0.00,Acu-Link.com,2013-05-08 05:16:00,
2013-05-08 01:33:00,61.9,61.3,29.93,ESE,112,0.0,-999.0,98,-99.99,,,0.00,Acu-Link.com,2013-05-08 05:33:00,
2013-05-08 01:50:00,62.1,61.5,29.92,ESE,112,0.0,-999.0,98,-99.99,,,0.00,Acu-Link.com,2013-05-08 05:50:00,
2013-05-08 02:05:00,62.1,61.5,29.92,ESE,112,0.0,-999.0,98,-99.99,,,0.00,Acu-Link.com,2013-05-08 06:05:00,
2013-05-08 02:20:00,62.1,61.5,29.92,ESE,112,0.0,-999.0,98,-99.99,,,0.00,Acu-Link.com,2013-05-08 06:20:00,
2013-05-08 02:36:00,62.1,61.5,29.91,ESE,112,0.0,-999.0,98,-99.99,,,0.00,Acu-Link.com,2013-05-08 06:36:00,
2013-05-08 02:52:00,62.1,61.5,29.90,ESE,112,0.0,-999.0,98,-99.99,,,0.00,Acu-Link.com,2013-05-08 06:52:00,
2013-05-08 03:09:00,62.6,62.0,29.90,ESE,112,0.0,-999.0,98,-99.99,,,0.00,Acu-Link.com,2013-05-08 07:09:00,
2013-05-08 03:26:00,62.8,62.2,29.90,ESE,112,0.0,-999.0,98,-99.99,,,0.00,Acu-Link.com,2013-05-08 07:26:00,
2013-05-08 03:42:00,63.1,62.5,29.90,ESE,112,0.0,-999.0,98,-99.99,,,0.00,Acu-Link.com,2013-05-08 07:42:00,
2013-05-08 03:59:00,63.0,62.4,29.91,ESE,112,1.1,-999.0,98,-99.99,,,0.00,Acu-Link.com,2013-05-08 07:59:00,
2013-05-08 04:16:00,62.4,61.8,29.90,ESE,112,2.2,-999.0,98,-99.99,,,0.00,Acu-Link.com,2013-05-08 08:16:00,
2013-05-08 04:32:00,61.9,61.3,29.90,ESE,112,3.2,-999.0,98,-99.99,,,0.00,Acu-Link.com,2013-05-08 08:32:00,
2013-05-08 04:49:00,61.9,61.3,29.91,ESE,112,0.0,-999.0,98,-99.99,,,0.00,Acu-Link.com,2013-05-08 08:49:00,
2013-05-08 05:05:00,61.9,61.3,29.90,ESE,112,1.1,-999.0,98,-99.99,,,0.00,Acu-Link.com,2013-05-08 09:05:00,
2013-05-08 05:23:00,61.9,61.3,29.89,ESE,112,0.0,-999.0,98,-99.99,,,0.00,Acu-Link.com,2013-05-08 09:23:00,
2013-05-08 05:40:00,62.1,61.5,29.89,ESE,112,0.0,-999.0,98,-99.99,,,0.00,Acu-Link.com,2013-05-08 09:40:00,
2013-05-08 05:56:00,62.2,61.6,29.90,ESE,112,0.0,-999.0,98,-99.99,,,0.00,Acu-Link.com,2013-05-08 09:56:00,
2013-05-08 06:12:00,62.2,61.6,29.90,ESE,112,0.0,-999.0,98,-99.99,,,0.00,Acu-Link.com,2013-05-08 10:12:00,
2013-05-08 06:27:00,62.4,61.8,29.90,ESE,112,1.1,-999.0,98,-99.99,,,0.00,Acu-Link.com,2013-05-08 10:27:00,
2013-05-08 06:43:00,62.4,61.8,29.90,ESE,112,0.0,-999.0,98,-99.99,,,0.00,Acu-Link.com,2013-05-08 10:43:00,
2013-05-08 06:58:00,62.6,62.0,29.92,ESE,112,1.1,-999.0,98,-99.99,,,0.00,Acu-Link.com,2013-05-08 10:58:00,
2013-05-08 07:16:00,63.0,62.4,29.92,ESE,112,0.0,-999.0,98,-99.99,,,0.00,Acu-Link.com,2013-05-08 11:16:00,
2013-05-08 07:33:00,63.0,62.4,29.93,ESE,112,0.0,-999.0,98,-99.99,,,0.00,Acu-Link.com,2013-05-08 11:33:00,
2013-05-08 07:49:00,63.7,63.1,29.93,ESE,112,0.0,-999.0,98,-99.99,,,0.00,Acu-Link.com,2013-05-08 11:49:00,
2013-05-08 08:06:00,64.6,64.0,29.92,ESE,112,0.0,-999.0,98,-99.99,,,0.00,Acu-Link.com,2013-05-08 12:06:00,
2013-05-08 08:23:00,66.2,65.6,29.93,ESE,112,0.0,-999.0,98,-99.99,,,0.00,Acu-Link.com,2013-05-08 12:23:00,
2013-05-08 08:40:00,66.2,65.6,29.93,ESE,112,0.0,-999.0,98,-99.99,,,0.00,Acu-Link.com,2013-05-08 12:40:00,
2013-05-08 08:57:00,65.8,65.2,29.94,ESE,112,2.7,-999.0,98,-99.99,,,0.00,Acu-Link.com,2013-05-08 12:57:00,
2013-05-08 09:13:00,65.7,65.1,29.93,NNE,22,3.7,-999.0,98,-99.99,,,0.00,Acu-Link.com,2013-05-08 13:13:00,
2013-05-08 09:30:00,66.2,65.6,29.94,SSW,202,2.2,-999.0,98,-99.99,,,0.00,Acu-Link.com,2013-05-08 13:30:00,
2013-05-08 09:47:00,64.8,64.2,29.95,WSW,247,3.7,-999.0,98,-99.99,,,0.00,Acu-Link.com,2013-05-08 13:47:00,
2013-05-08 10:02:00,66.2,65.3,29.95,SSW,202,5.3,-999.0,97,-99.99,,,0.00,Acu-Link.com,2013-05-08 14:02:00,
2013-05-08 10:20:00,67.3,40.1,29.95,South,180,1.7,-999.0,37,-99.99,,,0.00,Acu-Link.com,2013-05-08 14:20:00,
2013-05-08 10:36:00,68.0,-36.0,29.96,ESE,112,3.2,-999.0,1,-99.99,,,0.00,Acu-Link.com,2013-05-08 14:36:00,
2013-05-08 10:52:00,67.8,64.1,29.96,ESE,112,3.2,-999.0,88,-99.99,,,0.00,Acu-Link.com,2013-05-08 14:52:00,
2013-05-08 11:08:00,68.0,22.9,29.96,South,180,3.7,-999.0,18,-99.99,,,0.00,Acu-Link.com,2013-05-08 15:08:00,
2013-05-08 11:23:00,66.2,60.9,29.95,SSE,157,1.7,-999.0,83,-99.99,,,0.00,Acu-Link.com,2013-05-08 15:23:00,
2013-05-08 11:39:00,65.8,48.7,29.95,ESE,112,3.2,-999.0,54,-99.99,,,0.00,Acu-Link.com,2013-05-08 15:39:00,
2013-05-08 11:54:00,66.7,-36.8,29.96,SSE,157,5.3,-999.0,1,-99.99,,,0.00,Acu-Link.com,2013-05-08 15:54:00,
2013-05-08 12:09:00,66.0,-24.7,29.95,SSW,202,4.2,-999.0,2,-99.99,,,0.00,Acu-Link.com,2013-05-08 16:09:00,
2013-05-08 12:25:00,66.9,-36.7,29.95,ESE,112,4.7,-999.0,1,-99.99,,,0.00,Acu-Link.com,2013-05-08 16:25:00,
2013-05-08 12:40:00,66.0,-37.2,29.94,South,180,4.2,-999.0,1,-99.99,,,0.00,Acu-Link.com,2013-05-08 16:40:00,
2013-05-08 12:56:00,66.0,-24.7,29.93,East,90,3.7,-999.0,2,-99.99,,,0.00,Acu-Link.com,2013-05-08 16:56:00,
2013-05-08 13:11:00,66.6,-36.9,29.93,ESE,112,4.7,-999.0,1,-99.99,,,0.00,Acu-Link.com,2013-05-08 17:11:00,
2013-05-08 13:26:00,65.8,-24.9,29.93,South,180,5.8,-999.0,2,-99.99,,,0.00,Acu-Link.com,2013-05-08 17:26:00,
2013-05-08 13:42:00,65.1,-12.0,29.93,SE,135,4.2,-999.0,4,-99.99,,,0.00,Acu-Link.com,2013-05-08 17:42:00,
2013-05-08 13:57:00,65.8,-37.3,29.93,SE,135,4.7,-999.0,1,-99.99,,,0.00,Acu-Link.com,2013-05-08 17:57:00,
2013-05-08 14:13:00,66.0,-17.0,29.93,SE,135,5.8,-999.0,3,-99.99,,,0.00,Acu-Link.com,2013-05-08 18:13:00,
2013-05-08 14:47:00,70.5,-34.5,29.90,SSW,202,5.8,-999.0,1,-99.99,,,0.00,Acu-Link.com,2013-05-08 18:47:00,
2013-05-08 15:03:00,70.9,-34.3,29.90,SSW,202,6.8,-999.0,1,-99.99,,,0.00,Acu-Link.com,2013-05-08 19:03:00,
2013-05-08 15:18:00,70.7,3.6,29.90,SSE,157,4.7,-999.0,7,-99.99,,,0.00,Acu-Link.com,2013-05-08 19:18:00,
2013-05-08 15:33:00,70.2,44.1,29.89,SSE,157,4.2,-999.0,39,-99.99,,,0.00,Acu-Link.com,2013-05-08 19:33:00,
2013-05-08 15:49:00,70.9,59.0,29.89,SSW,202,7.3,-999.0,66,-99.99,,,0.00,Acu-Link.com,2013-05-08 19:49:00,
2013-05-08 16:05:00,71.1,55.1,29.89,ESE,112,8.9,-999.0,57,-99.99,,,0.00,Acu-Link.com,2013-05-08 20:05:00,
2013-05-08 16:20:00,70.2,-34.7,29.88,South,180,7.3,-999.0,1,-99.99,,,0.00,Acu-Link.com,2013-05-08 20:20:00,
2013-05-08 16:36:00,69.6,-35.1,29.89,ESE,112,9.9,-999.0,1,-99.99,,,0.00,Acu-Link.com,2013-05-08 20:36:00,
2013-05-08 16:52:00,69.6,-35.1,29.88,SE,135,6.8,-999.0,1,-99.99,,,0.00,Acu-Link.com,2013-05-08 20:52:00,
2013-05-08 17:08:00,68.7,-35.6,29.88,South,180,4.7,-999.0,1,-99.99,,,0.00,Acu-Link.com,2013-05-08 21:08:00,
2013-05-08 17:24:00,67.5,-36.3,29.89,SW,225,5.8,-999.0,1,-99.99,,,0.00,Acu-Link.com,2013-05-08 21:24:00,
2013-05-08 17:40:00,66.0,-37.2,29.89,SW,225,7.8,-999.0,1,-99.99,,,0.00,Acu-Link.com,2013-05-08 21:40:00,
2013-05-08 17:55:00,65.1,-37.8,29.89,SW,225,5.3,-999.0,1,-99.99,,,0.00,Acu-Link.com,2013-05-08 21:55:00,
2013-05-08 18:11:00,64.4,-38.2,29.88,SW,225,4.7,-999.0,1,-99.99,,,0.00,Acu-Link.com,2013-05-08 22:11:00,
2013-05-08 18:27:00,63.7,-38.6,29.88,SW,225,6.3,-999.0,1,-99.99,,,0.00,Acu-Link.com,2013-05-08 22:27:00,
2013-05-08 18:43:00,64.2,-38.3,29.89,SW,225,4.2,-999.0,1,-99.99,,,0.00,Acu-Link.com,2013-05-08 22:43:00,
2013-05-08 18:59:00,63.9,-38.5,29.90,SW,225,4.7,-999.0,1,-99.99,,,0.00,Acu-Link.com,2013-05-08 22:59:00,
2013-05-08 19:15:00,63.1,-39.0,29.89,SW,225,2.2,-999.0,1,-99.99,,,0.00,Acu-Link.com,2013-05-08 23:15:00,
2013-05-08 19:31:00,62.8,-39.2,29.90,SW,225,1.7,-999.0,1,-99.99,,,0.00,Acu-Link.com,2013-05-08 23:31:00,
2013-05-08 19:46:00,62.6,-39.3,29.90,WSW,247,2.7,-999.0,1,-99.99,,,0.00,Acu-Link.com,2013-05-08 23:46:00,
2013-05-08 20:06:00,62.4,-39.4,29.91,SSW,202,1.1,-999.0,1,-99.99,,,0.00,Acu-Link.com,2013-05-09 00:06:00,
2013-05-08 20:22:00,61.9,45.6,29.90,South,180,2.2,-999.0,55,-99.99,,,0.00,Acu-Link.com,2013-05-09 00:22:00,
2013-05-08 20:38:00,61.5,53.1,29.92,South,180,2.2,-999.0,74,-99.99,,,0.00,Acu-Link.com,2013-05-09 00:38:00,
2013-05-08 20:54:00,61.5,53.1,29.91,South,180,2.2,-999.0,74,-99.99,,,0.00,Acu-Link.com,2013-05-09 00:54:00,
2013-05-08 21:10:00,61.5,60.3,29.92,West,270,1.7,-999.0,96,-99.99,,,0.00,Acu-Link.com,2013-05-09 01:10:00,
2013-05-08 21:26:00,61.7,61.1,29.92,ESE,112,2.2,-999.0,98,-99.99,,,0.00,Acu-Link.com,2013-05-09 01:26:00,
2013-05-08 21:41:00,61.7,61.1,29.92,ESE,112,2.2,-999.0,98,-99.99,,,0.00,Acu-Link.com,2013-05-09 01:41:00,
2013-05-08 21:57:00,61.5,60.9,29.93,WSW,247,0.0,-999.0,98,-99.99,,,0.00,Acu-Link.com,2013-05-09 01:57:00,
2013-05-08 22:13:00,61.0,60.4,29.93,West,270,0.0,-999.0,98,-99.99,,,0.00,Acu-Link.com,2013-05-09 02:13:00,
2013-05-08 22:29:00,60.8,60.2,29.93,West,270,1.7,-999.0,98,-99.99,,,0.00,Acu-Link.com,2013-05-09 02:29:00,
2013-05-08 22:44:00,60.8,60.2,29.93,West,270,2.2,-999.0,98,-99.99,,,0.00,Acu-Link.com,2013-05-09 02:44:00,
2013-05-08 23:00:00,60.6,60.0,29.92,West,270,0.0,-999.0,98,-99.99,,,0.00,Acu-Link.com,2013-05-09 03:00:00,
2013-05-08 23:16:00,60.4,59.8,29.92,West,270,0.0,-999.0,98,-99.99,,,0.00,Acu-Link.com,2013-05-09 03:16:00,
2013-05-08 23:32:00,60.4,59.8,29.92,West,270,2.7,-999.0,98,-99.99,,,0.00,Acu-Link.com,2013-05-09 03:32:00,
2013-05-08 23:48:00,60.3,59.7,29.90,West,270,1.7,-999.0,98,-99.99,,,0.00,Acu-Link.com,2013-05-09 03:48:00,